Stations météo

Publicité
Biscarosse, France (7503): Température de l'air & dewpoint: 24.03.2017 14:00:00 - 30.03.2017 14:00:00 (CEST)Biscarosse, France (7503): Température de l'air 5cm: 24.03.2017 14:00:00 - 30.03.2017 14:00:00 (CEST)Biscarosse, France (7503): Température de l'air -20cm & Température de l'air -100cm: 24.03.2017 14:00:00 - 30.03.2017 14:00:00 (CEST)Biscarosse, France (7503): Vitesse du vent & gusts: 24.03.2017 14:00:00 - 30.03.2017 14:00:00 (CEST)Biscarosse, France (7503): Direction du vent: 24.03.2017 14:00:00 - 30.03.2017 14:00:00 (CEST)Biscarosse, France (7503): reduced air pressure: 24.03.2017 14:00:00 - 30.03.2017 14:00:00 (CEST)Biscarosse, France (7503): visibility: 24.03.2017 14:00:00 - 30.03.2017 14:00:00 (CEST)Biscarosse, France (7503): Ensoleillement: 24.03.2017 14:00:00 - 30.03.2017 14:00:00 (CEST)Biscarosse, France (7503): Quantités de précipitations: 24.03.2017 14:00:00 - 30.03.2017 14:00:00 (CEST)
Date & Time tt [°C] td [°C] tt 5cm [°C] tt -20cm [°C] tt -100cm [°C] ff [km/h] ff [knt] fx [km/h] fx [knt] dd ppp [hPa] vv [km] sd [min] rr [mm]
30.03.2017 14:00:00 24,6 8,5 29,4 16,6 13,9 14 8 21 11 SW 1019,9 18 60 0,0
30.03.2017 13:00:00 23,7 8,5 26,9 16,0 13,8 11 6 21 11 SW 1020,4 25 60 0,0
30.03.2017 12:00:00 21,8 8,3 23,9 15,7 13,8 10 5 21 11 SSE 1020,9 20 60 0,0
30.03.2017 11:00:00 19,4 8,1 19,6 15,7 13,8 11 6 23 12 SSE 1021,2 20 60 0,0
30.03.2017 10:00:00 15,7 7,2 13,5 15,8 13,8 11 6 22 12 SE 1021,4 20 60 0,0
30.03.2017 09:00:00 12,7 6,1 10,6 16,0 13,7 13 7 26 14 SE 1021,5 20 26 0,0
30.03.2017 08:00:00 11,1 5,4 10,3 16,3 13,7 15 8 26 14 SE 1021,6 25 0 0,0
30.03.2017 07:00:00 11,2 5,3 10,5 16,6 13,7 16 9 29 16 SE 1021,6 20 0 0,0
30.03.2017 06:00:00 11,8 5,4 11,0 17,0 13,6 14 8 26 14 ESE 1021,8 20 0 0,0
30.03.2017 05:00:00 12,9 5,8 11,9 17,3 13,6 16 8 26 14 SE 1022,0 20 0 0,0
30.03.2017 04:00:00 14,1 5,7 13,1 17,6 13,6 16 8 28 15 SE 1022,5 20 0 0,0
30.03.2017 03:00:00 14,3 5,6 13,0 17,9 13,5 16 8 25 13 SE 1023,0 20 0 0,0
30.03.2017 02:00:00 14,7 5,7 13,3 18,3 13,5 13 7 23 13 SE 1023,3 20 0 0,0
30.03.2017 01:00:00 14,6 6,2 13,4 18,6 13,5 13 7 23 13 SE 1023,6 20 0 0,0
30.03.2017 00:00:00 14,6 6,2 13,4 19,0 13,5 10 6 16 8 SE 1023,8 20 0 0,0
29.03.2017 23:00:00 15,7 7,2 13,7 19,3 13,5 12 7 16 9 ESE 1023,7 20 0 0,0
29.03.2017 22:00:00 16,2 7,1 13,3 19,5 13,4 10 6 12 7 E 1023,6 20 0 0,0
29.03.2017 21:00:00 16,6 6,7 14,3 19,7 13,4 3 2 9 5 ENE 1023,5 20 6 0,0
29.03.2017 20:00:00 19,0 7,1 18,1 19,5 13,4 6 3 19 10 NE 1023,2 20 39 0,0
29.03.2017 19:00:00 19,4 9,3 19,1 19,2 13,4 13 7 24 13 NNE 1023,1 20 58 0,0
29.03.2017 18:00:00 18,9 10,2 19,6 18,6 13,4 8 5 21 11 N 1023,2 20 57 0,0
29.03.2017 17:00:00 20,4 9,3 26,3 17,8 13,4 13 7 27 15 N 1023,4 20 60 0,0
29.03.2017 16:00:00 24,2 4,5 28,8 17,0 13,4 15 8 32 17 S 1023,8 20 60 0,0
29.03.2017 15:00:00 23,2 4,2 28,2 16,1 13,4 17 9 37 20 S 1024,5 20 60 0,0
29.03.2017 14:00:00 22,9 6,6 26,9 15,3 13,3 13 7 31 17 S 1025,2 20 60 0,0
29.03.2017 13:00:00 21,5 7,7 25,2 14,7 13,3 16 9 28 15 S 1026,0 20 60 0,0
29.03.2017 12:00:00 19,9 8,6 22,3 14,3 13,3 15 8 27 14 SE 1026,6 20 60 0,0
29.03.2017 11:00:00 17,1 8,8 18,6 14,3 13,3 14 7 23 12 SE 1026,8 20 60 0,0
29.03.2017 10:00:00 14,1 7,2 11,8 14,4 13,3 14 8 23 13 SE 1026,6 25 60 0,0
29.03.2017 09:00:00 11,3 6,2 9,4 14,7 13,2 14 8 22 12 SE 1026,5 20 23 0,0
29.03.2017 08:00:00 10,1 5,9 9,3 15,0 13,2 14 7 23 12 SE 1026,2 20 0 0,0
29.03.2017 07:00:00 10,6 6,2 9,6 15,2 13,1 14 7 23 13 SE 1026,0 20 0 0,0
29.03.2017 06:00:00 10,7 6,4 9,3 15,5 13,1 12 6 16 9 SE 1025,7 20 0 0,0
29.03.2017 05:00:00 10,3 7,0 9,5 15,9 13,1 7 4 21 12 SE 1026,0 20 0 0,0
29.03.2017 04:00:00 11,1 7,4 10,2 16,2 13,1 12 6 19 10 SE 1026,3 20 0 0,0
29.03.2017 03:00:00 11,6 7,7 10,5 16,5 13,0 14 7 22 12 ESE 1026,6 20 0 0,0
29.03.2017 02:00:00 12,1 7,6 10,3 16,9 13,0 14 8 21 11 ESE 1026,9 20 0 0,0
29.03.2017 01:00:00 12,2 7,5 10,3 17,3 13,0 12 6 18 10 ESE 1027,1 20 0 0,0
29.03.2017 00:00:00 12,5 7,6 10,7 17,6 12,9 11 6 15 8 ESE 1027,1 20 0 0,0
28.03.2017 23:00:00 12,7 7,8 10,9 18,0 12,9 8 5 17 9 ESE 1027,1 20 0 0,0
28.03.2017 22:00:00 12,6 8,1 10,9 18,2 12,9 11 6 16 9 ESE 1026,7 20 0 0,0
28.03.2017 21:00:00 12,9 9,2 11,7 18,4 12,9 6 3 14 8 E 1026,3 19 0 0,0
28.03.2017 20:00:00 15,1 10,1 14,2 18,3 12,9 10 5 17 9 NNE 1026,3 12 38 0,0
28.03.2017 19:00:00 16,5 8,7 16,7 18,0 12,9 11 6 16 9 N 1026,2 20 60 0,0
28.03.2017 18:00:00 16,3 9,2 17,1 17,4 12,9 6 3 11 6 NW 1026,1 20 60 0,0
28.03.2017 17:00:00 16,9 9,6 23,2 16,8 12,9 9 5 11 6 W 1026,1 20 60 0,0
28.03.2017 16:00:00 17,8 8,9 24,1 15,9 12,9 5 3 8 5 NW 1026,1 20 60 0,0
28.03.2017 15:00:00 16,6 9,5 23,4 15,1 12,9 7 4 13 7 NNW 1026,6 25 60 0,0
28.03.2017 14:00:00 15,6 11,8 21,3 14,3 12,8 11 6 16 8 NNW 1026,6 25 60 0,0
28.03.2017 13:00:00 15,8 11,4 23,0 13,6 12,8 13 7 16 9 W 1026,6 25 60 0,0
28.03.2017 12:00:00 15,7 11,1 21,5 13,2 12,8 11 6 15 8 SW 1026,3 20 60 0,0
28.03.2017 11:00:00 15,2 10,6 19,8 13,1 12,8 11 6 16 9 SW 1025,8 20 60 0,0
28.03.2017 10:00:00 13,7 9,9 11,7 13,1 12,8 9 5 13 7 SW 1024,9 25 60 0,0
28.03.2017 09:00:00 11,3 9,0 9,6 13,3 12,8 9 5 14 7 S 1024,3 20 22 0,0
28.03.2017 08:00:00 10,6 8,5 9,5 13,5 12,7 9 5 12 6 S 1023,5 20 0 0,0
28.03.2017 07:00:00 10,7 7,9 9,8 13,6 12,7 6 3 18 10 S 1023,0 20 0 0,0
28.03.2017 06:00:00 11,8 8,3 11,3 13,8 12,7 11 6 23 12 S 1022,4 20 0 0,0
28.03.2017 05:00:00 11,9 7,4 11,3 13,9 12,7 12 6 18 10 S 1022,0 20 0 0,0
28.03.2017 04:00:00 12,2 6,7 11,5 14,2 12,7 10 5 14 8 S 1022,0 20 0 0,0
28.03.2017 03:00:00 12,4 6,2 11,2 14,4 12,7 9 5 15 8 S 1022,1 20 0 0,0
28.03.2017 02:00:00 12,8 5,5 11,7 14,6 12,6 10 6 22 12 S 1021,9 20 0 0,0
28.03.2017 01:00:00 13,2 5,4 11,7 14,9 12,6 11 6 21 11 S 1021,6 20 0 0,0
28.03.2017 00:00:00 13,3 5,4 12,1 15,2 12,6 10 6 16 8 S 1021,1 20 0 0,0
27.03.2017 23:00:00 13,7 5,6 12,3 15,5 12,6 9 5 12 7 S 1020,7 20 0 0,0
27.03.2017 22:00:00 13,6 5,7 12,4 15,6 12,6 9 5 12 7 SSE 1020,1 20 0 0,0
27.03.2017 21:00:00 14,2 6,3 13,4 15,8 12,6 9 5 18 10 S 1019,4 20 4 0,0
27.03.2017 20:00:00 15,0 6,3 14,7 15,7 12,6 9 5 21 12 S 1019,1 20 34 0,0
27.03.2017 19:00:00 15,9 6,9 16,7 15,4 12,6 14 8 23 13 SSW 1018,5 20 60 0,0
27.03.2017 18:00:00 17,1 7,7 17,6 15,2 12,5 8 4 19 11 SW 1018,1 20 1 0,0
27.03.2017 17:00:00 15,7 6,4 16,9 14,8 12,6 14 8 37 20 S 1017,9 20 0 0,0
27.03.2017 16:00:00 15,6 6,8 18,3 14,3 12,6 19 11 31 17 SSW 1017,8 20 0 0,0
27.03.2017 15:00:00 15,7 7,2 18,5 13,6 12,6 24 13 35 19 SW 1017,7 25 14 0,0
27.03.2017 14:00:00 16,8 6,3 20,1 12,9 12,5 20 11 38 21 SW 1017,4 25 53 0,0
27.03.2017 13:00:00 18,0 4,9 20,5 12,3 12,5 22 12 37 20 SW 1016,9 20 55 0,0
27.03.2017 12:00:00 17,1 5,1 21,1 11,9 12,5 9 5 21 11 S 1016,4 20 60 0,0
27.03.2017 11:00:00 14,5 8,2 12,4 11,8 12,5 13 7 31 17 ESE 1016,0 25 37 0,0
27.03.2017 10:00:00 10,7 7,0 9,6 11,8 12,5 18 10 32 17 ESE 1015,4 20 0 0,0
27.03.2017 09:00:00 9,5 6,2 9,0 12,0 12,5 20 11 35 19 ESE 1015,3 20 0 0,0
27.03.2017 08:00:00 9,5 5,7 8,8 12,2 12,5 20 11 36 20 ESE 1014,7 20 0 0,0
27.03.2017 07:00:00 9,4 4,8 8,9 12,3 12,5 14 7 34 18 SE 1014,3 20 0 0,0
27.03.2017 06:00:00 10,2 4,8 9,8 12,5 12,4 20 11 35 19 ESE 1013,4 20 0 0,0
27.03.2017 05:00:00 10,7 4,8 9,1 12,7 12,4 21 11 41 22 SE 1013,5 20 0 0,0
27.03.2017 04:00:00 10,3 4,2 9,3 13,0 12,4 19 10 32 18 ESE 1014,3 20 0 0,0
27.03.2017 03:00:00 11,2 4,2 10,3 13,2 12,4 18 10 35 19 SE 1014,5 20 0 0,0
27.03.2017 02:00:00 11,8 3,5 10,7 13,5 12,4 17 9 32 17 ESE 1014,9 20 0 0,0
27.03.2017 01:00:00 12,7 2,5 11,4 13,8 12,4 18 10 30 16 ESE 1014,9 20 0 0,0
27.03.2017 00:00:00 13,7 2,6 12,0 14,0 12,4 16 9 24 13 ESE 1014,9 20 0 0,0
26.03.2017 23:00:00 14,4 3,2 12,5 14,2 12,4 15 8 27 15 ESE 1015,0 20 0 0,0
26.03.2017 22:00:00 15,2 4,0 13,3 14,4 12,4 16 9 27 14 ESE 1015,2 20 0 0,0
26.03.2017 21:00:00 15,4 4,4 12,9 14,4 12,4 12 7 18 10 ESE 1014,8 20 0 0,0
26.03.2017 20:00:00 17,8 4,0 16,1 14,3 12,5 5 3 15 8 ESE 1014,5 20 30 0,0
26.03.2017 19:00:00 19,5 3,2 19,4 14,0 12,5 6 4 24 13 SSE 1014,1 20 47 0,0
26.03.2017 18:00:00 19,8 3,9 20,4 13,5 12,5 11 6 30 16 SSE 1014,4 20 50 0,0
26.03.2017 17:00:00 19,1 3,3 21,8 12,9 12,5 10 5 22 12 SE 1014,8 20 21 0,0
26.03.2017 16:00:00 19,2 4,5 22,4 12,2 12,5 12 7 27 15 SSE 1015,6 20 49 0,0
26.03.2017 15:00:00 17,7 5,6 21,1 11,4 12,5 11 6 20 11 SSE 1016,2 20 50 0,2
26.03.2017 14:00:00 16,7 5,3 18,2 10,8 12,5 11 6 26 14 ESE 1016,7 20 41 0,0
26.03.2017 13:00:00 14,2 7,0 12,2 10,4 12,5 13 7 26 14 ESE 1017,0 20 21 0,0
26.03.2017 12:00:00 10,5 6,1 11,2 10,2 12,5 14 7 24 13 ESE 1017,1 20 0 0,0
26.03.2017 11:00:00 9,4 5,2 10,2 10,1 12,5 14 7 28 15 SE 1016,9 20 14 0,0
26.03.2017 10:00:00 7,7 4,3 6,6 10,3 12,5 15 8 32 18 SE 1016,2 20 11 0,0
26.03.2017 09:00:00 6,0 4,5 5,0 10,5 12,5 19 11 30 16 SE 1015,8 20 6 0,0
26.03.2017 08:00:00 5,4 3,9 5,0 10,7 12,5 16 9 27 15 SE 1015,0 20 0 0,0
26.03.2017 07:00:00 6,0 4,2 5,4 10,9 12,5 15 8 27 15 ESE 1014,6 20 0 0,0
26.03.2017 06:00:00 6,7 4,4 6,0 11,2 12,5 15 8 28 15 ESE 1014,4 20 0 0,0
26.03.2017 05:00:00 7,4 4,9 6,5 11,3 12,4 16 9 24 13 ESE 1014,4 20 0 0,0
26.03.2017 04:00:00 8,8 4,6 8,0 11,5 12,4 14 7 29 16 SE 1014,5 20 0 0,0
26.03.2017 03:00:00 8,5 4,5 7,8 11,7 12,4 12 6 21 11 SE 1014,7 20 0 0,0
26.03.2017 02:00:00 8,2 4,6 7,3 11,9 12,4 9 5 21 11 SE 1014,7 20 0 0,0
26.03.2017 01:00:00 8,0 3,6 7,1 12,3 12,4 12 7 23 12 S 1014,4 20 0 0,0
26.03.2017 00:00:00 8,1 4,5 6,5 12,6 12,4 13 7 31 17 SSE 1014,4 20 0 0,0
25.03.2017 23:00:00 7,2 4,5 6,4 12,9 12,4 11 6 25 14 S 1013,9 20 0 0,0
25.03.2017 22:00:00 7,1 4,9 6,5 13,3 12,4 11 6 27 14 SE 1013,5 20 0 0,0
25.03.2017 21:00:00 7,7 5,8 7,2 13,6 12,4 11 6 23 13 SSE 1012,9 20 0 0,0
25.03.2017 20:00:00 8,1 6,9 7,9 13,7 12,4 12 6 39 21 SSE 1011,5 20 9 1,0
25.03.2017 19:00:00 8,4 6,7 8,2 13,7 12,4 21 12 45 24 S 1010,6 8 8 1,4
25.03.2017 18:00:00 10,8 9,1 10,3 13,5 12,4 8 4 41 22 SE 1009,8 20 0 0,6
25.03.2017 17:00:00 11,3 8,3 10,7 13,2 12,4 25 13 53 29 SE 1009,6 10 12 0,6
25.03.2017 16:00:00 16,7 5,6 18,3 12,7 12,3 13 7 33 18 ESE 1008,3 20 19 0,0
25.03.2017 15:00:00 16,8 7,2 17,8 12,4 12,3 21 12 42 23 ESE 1008,8 20 7 0,0
25.03.2017 14:00:00 14,8 7,8 13,8 12,2 12,4 10 5 29 16 ESE 1009,3 20 0 0,0
25.03.2017 13:00:00 14,1 6,9 14,7 11,9 12,4 11 6 37 20 ESE 1010,0 20 0 0,0
25.03.2017 12:00:00 15,5 8,0 17,0 11,7 12,3 16 9 34 18 SSE 1009,9 20 28 0,0
25.03.2017 11:00:00 15,6 8,1 16,2 11,5 12,3 19 10 38 21 E 1009,7 20 60 0,0
25.03.2017 10:00:00 12,7 8,4 10,0 11,6 12,3 18 10 34 19 ENE 1010,1 20 16 0,0
25.03.2017 09:00:00 9,4 7,7 8,5 11,7 12,3 9 5 15 8 ENE 1011,0 13 0 0,0
25.03.2017 08:00:00 8,5 7,0 7,8 11,8 12,3 7 4 14 8 NE 1012,1 20 0 0,0
25.03.2017 07:00:00 8,0 6,1 7,8 11,9 12,3 2 1 6 3 NNE 1012,5 20 0 0,0
25.03.2017 06:00:00 8,1 6,1 7,9 12,0 12,3 0 0 5 3 N 1013,5 20 0 0,0
25.03.2017 05:00:00 8,2 6,0 8,1 12,1 12,3 4 2 6 4 S 1013,9 20 0 0,0
25.03.2017 04:00:00 8,4 5,9 8,2 12,3 12,3 3 1 6 4 SE 1014,9 20 0 0,0
25.03.2017 03:00:00 8,5 5,6 8,1 12,4 12,3 3 2 9 5 S 1015,8 20 0 0,0
25.03.2017 02:00:00 8,6 5,5 7,8 12,5 12,3 5 3 9 5 SSE 1016,6 20 0 0,0
25.03.2017 01:00:00 9,1 5,1 7,8 12,7 12,3 5 3 19 10 E 1016,8 20 0 0,2
25.03.2017 00:00:00 10,2 4,1 9,9 12,9 12,2 12 6 30 16 E 1017,1 20 0 0,0
24.03.2017 23:00:00 11,0 5,7 10,6 13,0 12,3 14 8 24 13 E 1017,4 20 0 0,0
24.03.2017 22:00:00 11,5 6,2 11,1 13,2 12,3 7 4 16 9 E 1017,7 20 0 0,0
24.03.2017 21:00:00 11,6 6,1 11,1 13,2 12,3 11 6 19 10 ESE 1017,5 20 0 0,0
24.03.2017 20:00:00 12,4 6,0 12,3 13,1 12,3 6 4 19 10 E 1017,3 20 0 0,0
24.03.2017 19:00:00 13,1 6,7 14,2 12,9 12,3 8 5 23 13 NE 1016,8 20 0 0,0
24.03.2017 18:00:00 12,5 5,9 14,1 12,5 12,3 18 10 23 12 N 1016,7 20 12 0,0
24.03.2017 17:00:00 13,0 5,9 16,9 12,0 12,4 16 9 22 12 N 1016,9 25 52 0,0
24.03.2017 16:00:00 12,5 5,4 16,2 11,3 12,3 15 8 20 11 N 1017,2 25 49 0,0
24.03.2017 15:00:00 11,7 4,2 14,4 10,6 12,4 15 8 20 11 NNW 1017,6 25 29 0,0
24.03.2017 14:00:00 - - - - - - - - - - - - - -

tt = Température de l'air
td = dewpoint
tt 5cm = Température de l'air 5cm
tt -20cm = Température de l'air -20cm
tt -100cm = Température de l'air -100cm
ff = Vitesse du vent
fx = gusts
dd = Direction du vent
ppp = reduced air pressure
vv = visibility
sd = Ensoleillement
rr = Quantités de précipitations

stations d'obs. à proximité